Index of /20260504/WXO-DD/model_rdps/10km/06/078
Name Last modified Size Description
Parent Directory -
20260504T06Z_MSC_RDPS_AbsoluteVorticity_IsbL-0250_RLatLon0.09_PT078H.grib2 2026-05-04 09:03 611K
20260504T06Z_MSC_RDPS_AbsoluteVorticity_IsbL-0500_RLatLon0.09_PT078H.grib2 2026-05-04 09:03 555K
20260504T06Z_MSC_RDPS_AbsoluteVorticity_IsbL-0700_RLatLon0.09_PT078H.grib2 2026-05-04 09:03 608K
20260504T06Z_MSC_RDPS_AbsoluteVorticity_IsbL-0850_RLatLon0.09_PT078H.grib2 2026-05-04 09:03 786K
20260504T06Z_MSC_RDPS_AirTemp_AGL-120m_RLatLon0.09_PT078H.grib2 2026-05-04 09:03 382K
20260504T06Z_MSC_RDPS_AirTemp_AGL-2m_RLatLon0.09_PT078H.grib2 2026-05-04 09:03 629K
20260504T06Z_MSC_RDPS_AirTemp_AGL-40m_RLatLon0.09_PT078H.grib2 2026-05-04 09:03 399K
20260504T06Z_MSC_RDPS_AirTemp_AGL-80m_RLatLon0.09_PT078H.grib2 2026-05-04 09:03 390K
20260504T06Z_MSC_RDPS_AirTemp_IsbL-0001_RLatLon0.09_PT078H.grib2 2026-05-04 09:03 239K
20260504T06Z_MSC_RDPS_AirTemp_IsbL-0005_RLatLon0.09_PT078H.grib2 2026-05-04 09:03 378K
20260504T06Z_MSC_RDPS_AirTemp_IsbL-0010_RLatLon0.09_PT078H.grib2 2026-05-04 09:03 362K
20260504T06Z_MSC_RDPS_AirTemp_IsbL-0020_RLatLon0.09_PT078H.grib2 2026-05-04 09:03 324K
20260504T06Z_MSC_RDPS_AirTemp_IsbL-0030_RLatLon0.09_PT078H.grib2 2026-05-04 09:03 340K
20260504T06Z_MSC_RDPS_AirTemp_IsbL-0050_RLatLon0.09_PT078H.grib2 2026-05-04 09:03 314K
20260504T06Z_MSC_RDPS_AirTemp_IsbL-0100_RLatLon0.09_PT078H.grib2 2026-05-04 09:03 420K
20260504T06Z_MSC_RDPS_AirTemp_IsbL-0150_RLatLon0.09_PT078H.grib2 2026-05-04 09:03 408K
20260504T06Z_MSC_RDPS_AirTemp_IsbL-0175_RLatLon0.09_PT078H.grib2 2026-05-04 09:03 402K
20260504T06Z_MSC_RDPS_AirTemp_IsbL-0200_RLatLon0.09_PT078H.grib2 2026-05-04 09:03 410K
20260504T06Z_MSC_RDPS_AirTemp_IsbL-0225_RLatLon0.09_PT078H.grib2 2026-05-04 09:03 412K
20260504T06Z_MSC_RDPS_AirTemp_IsbL-0250_RLatLon0.09_PT078H.grib2 2026-05-04 09:03 418K
20260504T06Z_MSC_RDPS_AirTemp_IsbL-0275_RLatLon0.09_PT078H.grib2 2026-05-04 09:03 398K
20260504T06Z_MSC_RDPS_AirTemp_IsbL-0300_RLatLon0.09_PT078H.grib2 2026-05-04 09:03 406K
20260504T06Z_MSC_RDPS_AirTemp_IsbL-0350_RLatLon0.09_PT078H.grib2 2026-05-04 09:03 420K
20260504T06Z_MSC_RDPS_AirTemp_IsbL-0400_RLatLon0.09_PT078H.grib2 2026-05-04 09:03 420K
20260504T06Z_MSC_RDPS_AirTemp_IsbL-0450_RLatLon0.09_PT078H.grib2 2026-05-04 09:03 427K
20260504T06Z_MSC_RDPS_AirTemp_IsbL-0500_RLatLon0.09_PT078H.grib2 2026-05-04 09:03 438K
20260504T06Z_MSC_RDPS_AirTemp_IsbL-0550_RLatLon0.09_PT078H.grib2 2026-05-04 09:03 454K
20260504T06Z_MSC_RDPS_AirTemp_IsbL-0600_RLatLon0.09_PT078H.grib2 2026-05-04 09:03 434K
20260504T06Z_MSC_RDPS_AirTemp_IsbL-0650_RLatLon0.09_PT078H.grib2 2026-05-04 09:03 448K
20260504T06Z_MSC_RDPS_AirTemp_IsbL-0700_RLatLon0.09_PT078H.grib2 2026-05-04 09:03 472K
20260504T06Z_MSC_RDPS_AirTemp_IsbL-0750_RLatLon0.09_PT078H.grib2 2026-05-04 09:03 515K
20260504T06Z_MSC_RDPS_AirTemp_IsbL-0800_RLatLon0.09_PT078H.grib2 2026-05-04 09:03 572K
20260504T06Z_MSC_RDPS_AirTemp_IsbL-0850_RLatLon0.09_PT078H.grib2 2026-05-04 09:03 634K
20260504T06Z_MSC_RDPS_AirTemp_IsbL-0875_RLatLon0.09_PT078H.grib2 2026-05-04 09:03 528K
20260504T06Z_MSC_RDPS_AirTemp_IsbL-0900_RLatLon0.09_PT078H.grib2 2026-05-04 09:03 535K
20260504T06Z_MSC_RDPS_AirTemp_IsbL-0925_RLatLon0.09_PT078H.grib2 2026-05-04 09:03 534K
20260504T06Z_MSC_RDPS_AirTemp_IsbL-0950_RLatLon0.09_PT078H.grib2 2026-05-04 09:03 530K
20260504T06Z_MSC_RDPS_AirTemp_IsbL-0970_RLatLon0.09_PT078H.grib2 2026-05-04 09:03 526K
20260504T06Z_MSC_RDPS_AirTemp_IsbL-0985_RLatLon0.09_PT078H.grib2 2026-05-04 09:03 512K
20260504T06Z_MSC_RDPS_AirTemp_IsbL-1000_RLatLon0.09_PT078H.grib2 2026-05-04 09:03 496K
20260504T06Z_MSC_RDPS_AirTemp_IsbL-1015_RLatLon0.09_PT078H.grib2 2026-05-04 09:03 495K
20260504T06Z_MSC_RDPS_Albedo_Sfc_RLatLon0.09_PT078H.grib2 2026-05-04 09:03 151K
20260504T06Z_MSC_RDPS_CAPE_Sfc_RLatLon0.09_PT078H.grib2 2026-05-04 09:03 1.7M
20260504T06Z_MSC_RDPS_CIN_Sfc_RLatLon0.09_PT078H.grib2 2026-05-04 09:03 1.1M
20260504T06Z_MSC_RDPS_CloudWater_EAtm_RLatLon0.09_PT078H.grib2 2026-05-04 09:03 223K
20260504T06Z_MSC_RDPS_ConvectivePrecip-Accum_Sfc_RLatLon0.09_PT078H.grib2 2026-05-04 09:03 1.3M
20260504T06Z_MSC_RDPS_DewPointDepression_AGL-2m_RLatLon0.09_PT078H.grib2 2026-05-04 09:03 404K
20260504T06Z_MSC_RDPS_DewPointDepression_IsbL-0001_RLatLon0.09_PT078H.grib2 2026-05-04 09:03 193
20260504T06Z_MSC_RDPS_DewPointDepression_IsbL-0005_RLatLon0.09_PT078H.grib2 2026-05-04 09:03 193
20260504T06Z_MSC_RDPS_DewPointDepression_IsbL-0010_RLatLon0.09_PT078H.grib2 2026-05-04 09:03 193
20260504T06Z_MSC_RDPS_DewPointDepression_IsbL-0020_RLatLon0.09_PT078H.grib2 2026-05-04 09:03 193
20260504T06Z_MSC_RDPS_DewPointDepression_IsbL-0030_RLatLon0.09_PT078H.grib2 2026-05-04 09:03 193
20260504T06Z_MSC_RDPS_DewPointDepression_IsbL-0050_RLatLon0.09_PT078H.grib2 2026-05-04 09:03 109K
20260504T06Z_MSC_RDPS_DewPointDepression_IsbL-0100_RLatLon0.09_PT078H.grib2 2026-05-04 09:03 112K
20260504T06Z_MSC_RDPS_DewPointDepression_IsbL-0150_RLatLon0.09_PT078H.grib2 2026-05-04 09:03 134K
20260504T06Z_MSC_RDPS_DewPointDepression_IsbL-0175_RLatLon0.09_PT078H.grib2 2026-05-04 09:03 176K
20260504T06Z_MSC_RDPS_DewPointDepression_IsbL-0200_RLatLon0.09_PT078H.grib2 2026-05-04 09:03 219K
20260504T06Z_MSC_RDPS_DewPointDepression_IsbL-0225_RLatLon0.09_PT078H.grib2 2026-05-04 09:03 251K
20260504T06Z_MSC_RDPS_DewPointDepression_IsbL-0250_RLatLon0.09_PT078H.grib2 2026-05-04 09:03 297K
20260504T06Z_MSC_RDPS_DewPointDepression_IsbL-0275_RLatLon0.09_PT078H.grib2 2026-05-04 09:03 307K
20260504T06Z_MSC_RDPS_DewPointDepression_IsbL-0300_RLatLon0.09_PT078H.grib2 2026-05-04 09:03 325K
20260504T06Z_MSC_RDPS_DewPointDepression_IsbL-0350_RLatLon0.09_PT078H.grib2 2026-05-04 09:03 332K
20260504T06Z_MSC_RDPS_DewPointDepression_IsbL-0400_RLatLon0.09_PT078H.grib2 2026-05-04 09:03 339K
20260504T06Z_MSC_RDPS_DewPointDepression_IsbL-0450_RLatLon0.09_PT078H.grib2 2026-05-04 09:03 344K
20260504T06Z_MSC_RDPS_DewPointDepression_IsbL-0500_RLatLon0.09_PT078H.grib2 2026-05-04 09:03 348K
20260504T06Z_MSC_RDPS_DewPointDepression_IsbL-0550_RLatLon0.09_PT078H.grib2 2026-05-04 09:03 357K
20260504T06Z_MSC_RDPS_DewPointDepression_IsbL-0600_RLatLon0.09_PT078H.grib2 2026-05-04 09:03 365K
20260504T06Z_MSC_RDPS_DewPointDepression_IsbL-0650_RLatLon0.09_PT078H.grib2 2026-05-04 09:03 366K
20260504T06Z_MSC_RDPS_DewPointDepression_IsbL-0700_RLatLon0.09_PT078H.grib2 2026-05-04 09:03 373K
20260504T06Z_MSC_RDPS_DewPointDepression_IsbL-0750_RLatLon0.09_PT078H.grib2 2026-05-04 09:03 397K
20260504T06Z_MSC_RDPS_DewPointDepression_IsbL-0800_RLatLon0.09_PT078H.grib2 2026-05-04 09:03 444K
20260504T06Z_MSC_RDPS_DewPointDepression_IsbL-0850_RLatLon0.09_PT078H.grib2 2026-05-04 09:03 483K
20260504T06Z_MSC_RDPS_DewPointDepression_IsbL-0875_RLatLon0.09_PT078H.grib2 2026-05-04 09:03 482K
20260504T06Z_MSC_RDPS_DewPointDepression_IsbL-0900_RLatLon0.09_PT078H.grib2 2026-05-04 09:03 471K
20260504T06Z_MSC_RDPS_DewPointDepression_IsbL-0925_RLatLon0.09_PT078H.grib2 2026-05-04 09:03 457K
20260504T06Z_MSC_RDPS_DewPointDepression_IsbL-0950_RLatLon0.09_PT078H.grib2 2026-05-04 09:03 446K
20260504T06Z_MSC_RDPS_DewPointDepression_IsbL-0970_RLatLon0.09_PT078H.grib2 2026-05-04 09:03 439K
20260504T06Z_MSC_RDPS_DewPointDepression_IsbL-0985_RLatLon0.09_PT078H.grib2 2026-05-04 09:03 436K
20260504T06Z_MSC_RDPS_DewPointDepression_IsbL-1000_RLatLon0.09_PT078H.grib2 2026-05-04 09:03 435K
20260504T06Z_MSC_RDPS_DewPointDepression_IsbL-1015_RLatLon0.09_PT078H.grib2 2026-05-04 09:03 424K
20260504T06Z_MSC_RDPS_DewPoint_AGL-2m_RLatLon0.09_PT078H.grib2 2026-05-04 09:03 402K
20260504T06Z_MSC_RDPS_DownwardLongwaveRadiationFlux-Accum_Sfc_RLatLon0.09_PT078H.grib2 2026-05-04 09:03 439K
20260504T06Z_MSC_RDPS_DownwardShortwaveRadiationFlux-Accum_NTAtm_RLatLon0.09_PT078H.grib2 2026-05-04 09:03 158K
20260504T06Z_MSC_RDPS_DownwardShortwaveRadiationFlux-Accum_Sfc_RLatLon0.09_PT078H.grib2 2026-05-04 09:03 638K
20260504T06Z_MSC_RDPS_FreezingRain-Accum12h_Sfc_RLatLon0.09_PT078H.grib2 2026-05-04 09:03 72K
20260504T06Z_MSC_RDPS_FreezingRain-Accum1h_Sfc_RLatLon0.09_PT078H.grib2 2026-05-04 09:03 37K
20260504T06Z_MSC_RDPS_FreezingRain-Accum24h_Sfc_RLatLon0.09_PT078H.grib2 2026-05-04 09:03 95K
20260504T06Z_MSC_RDPS_FreezingRain-Accum3h_Sfc_RLatLon0.09_PT078H.grib2 2026-05-04 09:03 34K
20260504T06Z_MSC_RDPS_FreezingRain-Accum6h_Sfc_RLatLon0.09_PT078H.grib2 2026-05-04 09:03 57K
20260504T06Z_MSC_RDPS_FreezingRain-Accum_Sfc_RLatLon0.09_PT078H.grib2 2026-05-04 09:03 203K
20260504T06Z_MSC_RDPS_GeopotentialHeight_IsbL-0001_RLatLon0.09_PT078H.grib2 2026-05-04 09:03 244K
20260504T06Z_MSC_RDPS_GeopotentialHeight_IsbL-0005_RLatLon0.09_PT078H.grib2 2026-05-04 09:03 341K
20260504T06Z_MSC_RDPS_GeopotentialHeight_IsbL-0010_RLatLon0.09_PT078H.grib2 2026-05-04 09:03 342K
20260504T06Z_MSC_RDPS_GeopotentialHeight_IsbL-0020_RLatLon0.09_PT078H.grib2 2026-05-04 09:03 310K
20260504T06Z_MSC_RDPS_GeopotentialHeight_IsbL-0030_RLatLon0.09_PT078H.grib2 2026-05-04 09:03 312K
20260504T06Z_MSC_RDPS_GeopotentialHeight_IsbL-0050_RLatLon0.09_PT078H.grib2 2026-05-04 09:03 312K
20260504T06Z_MSC_RDPS_GeopotentialHeight_IsbL-0100_RLatLon0.09_PT078H.grib2 2026-05-04 09:03 287K
20260504T06Z_MSC_RDPS_GeopotentialHeight_IsbL-0150_RLatLon0.09_PT078H.grib2 2026-05-04 09:03 229K
20260504T06Z_MSC_RDPS_GeopotentialHeight_IsbL-0175_RLatLon0.09_PT078H.grib2 2026-05-04 09:03 231K
20260504T06Z_MSC_RDPS_GeopotentialHeight_IsbL-0200_RLatLon0.09_PT078H.grib2 2026-05-04 09:03 234K
20260504T06Z_MSC_RDPS_GeopotentialHeight_IsbL-0225_RLatLon0.09_PT078H.grib2 2026-05-04 09:03 236K
20260504T06Z_MSC_RDPS_GeopotentialHeight_IsbL-0250_RLatLon0.09_PT078H.grib2 2026-05-04 09:03 237K
20260504T06Z_MSC_RDPS_GeopotentialHeight_IsbL-0275_RLatLon0.09_PT078H.grib2 2026-05-04 09:03 236K
20260504T06Z_MSC_RDPS_GeopotentialHeight_IsbL-0300_RLatLon0.09_PT078H.grib2 2026-05-04 09:03 236K
20260504T06Z_MSC_RDPS_GeopotentialHeight_IsbL-0350_RLatLon0.09_PT078H.grib2 2026-05-04 09:03 232K
20260504T06Z_MSC_RDPS_GeopotentialHeight_IsbL-0400_RLatLon0.09_PT078H.grib2 2026-05-04 09:03 229K
20260504T06Z_MSC_RDPS_GeopotentialHeight_IsbL-0450_RLatLon0.09_PT078H.grib2 2026-05-04 09:03 296K
20260504T06Z_MSC_RDPS_GeopotentialHeight_IsbL-0500_RLatLon0.09_PT078H.grib2 2026-05-04 09:03 290K
20260504T06Z_MSC_RDPS_GeopotentialHeight_IsbL-0550_RLatLon0.09_PT078H.grib2 2026-05-04 09:03 286K
20260504T06Z_MSC_RDPS_GeopotentialHeight_IsbL-0600_RLatLon0.09_PT078H.grib2 2026-05-04 09:03 282K
20260504T06Z_MSC_RDPS_GeopotentialHeight_IsbL-0650_RLatLon0.09_PT078H.grib2 2026-05-04 09:03 251K
20260504T06Z_MSC_RDPS_GeopotentialHeight_IsbL-0700_RLatLon0.09_PT078H.grib2 2026-05-04 09:03 332K
20260504T06Z_MSC_RDPS_GeopotentialHeight_IsbL-0750_RLatLon0.09_PT078H.grib2 2026-05-04 09:03 335K
20260504T06Z_MSC_RDPS_GeopotentialHeight_IsbL-0800_RLatLon0.09_PT078H.grib2 2026-05-04 09:03 376K
20260504T06Z_MSC_RDPS_GeopotentialHeight_IsbL-0850_RLatLon0.09_PT078H.grib2 2026-05-04 09:03 389K
20260504T06Z_MSC_RDPS_GeopotentialHeight_IsbL-0875_RLatLon0.09_PT078H.grib2 2026-05-04 09:03 392K
20260504T06Z_MSC_RDPS_GeopotentialHeight_IsbL-0900_RLatLon0.09_PT078H.grib2 2026-05-04 09:03 394K
20260504T06Z_MSC_RDPS_GeopotentialHeight_IsbL-0925_RLatLon0.09_PT078H.grib2 2026-05-04 09:03 397K
20260504T06Z_MSC_RDPS_GeopotentialHeight_IsbL-0950_RLatLon0.09_PT078H.grib2 2026-05-04 09:03 400K
20260504T06Z_MSC_RDPS_GeopotentialHeight_IsbL-0970_RLatLon0.09_PT078H.grib2 2026-05-04 09:03 405K
20260504T06Z_MSC_RDPS_GeopotentialHeight_IsbL-0985_RLatLon0.09_PT078H.grib2 2026-05-04 09:03 414K
20260504T06Z_MSC_RDPS_GeopotentialHeight_IsbL-1000_RLatLon0.09_PT078H.grib2 2026-05-04 09:03 427K
20260504T06Z_MSC_RDPS_GeopotentialHeight_IsbL-1015_RLatLon0.09_PT078H.grib2 2026-05-04 09:03 421K
20260504T06Z_MSC_RDPS_Humidex_Sfc_RLatLon0.09_PT078H.grib2 2026-05-04 09:03 2.4M
20260504T06Z_MSC_RDPS_IcePellets-Accum12h_Sfc_RLatLon0.09_PT078H.grib2 2026-05-04 09:03 9.5K
20260504T06Z_MSC_RDPS_IcePellets-Accum1h_Sfc_RLatLon0.09_PT078H.grib2 2026-05-04 09:03 5.0K
20260504T06Z_MSC_RDPS_IcePellets-Accum24h_Sfc_RLatLon0.09_PT078H.grib2 2026-05-04 09:03 17K
20260504T06Z_MSC_RDPS_IcePellets-Accum3h_Sfc_RLatLon0.09_PT078H.grib2 2026-05-04 09:03 5.7K
20260504T06Z_MSC_RDPS_IcePellets-Accum6h_Sfc_RLatLon0.09_PT078H.grib2 2026-05-04 09:03 7.4K
20260504T06Z_MSC_RDPS_IcePellets-Accum_Sfc_RLatLon0.09_PT078H.grib2 2026-05-04 09:03 42K
20260504T06Z_MSC_RDPS_KIndex_Sfc_RLatLon0.09_PT078H.grib2 2026-05-04 09:03 2.5M
20260504T06Z_MSC_RDPS_LatentHeatNetFlux_Sfc_RLatLon0.09_PT078H.grib2 2026-05-04 09:03 333K
20260504T06Z_MSC_RDPS_LiftedIndex-MU-VT_IsbL-0500_RLatLon0.09_PT078H.grib2 2026-05-04 09:03 2.4M
20260504T06Z_MSC_RDPS_NetLongwaveRadiationFlux-Accum_Sfc_RLatLon0.09_PT078H.grib2 2026-05-04 09:03 488K
20260504T06Z_MSC_RDPS_NetShortwaveRadiationFlux-Accum_Sfc_RLatLon0.09_PT078H.grib2 2026-05-04 09:03 636K
20260504T06Z_MSC_RDPS_PlanetaryBoundaryLayerHeight_Sfc_RLatLon0.09_PT078H.grib2 2026-05-04 09:03 1.1M
20260504T06Z_MSC_RDPS_Precip-Accum12h_Sfc_RLatLon0.09_PT078H.grib2 2026-05-04 09:03 1.7M
20260504T06Z_MSC_RDPS_Precip-Accum1h_Sfc_RLatLon0.09_PT078H.grib2 2026-05-04 09:03 1.3M
20260504T06Z_MSC_RDPS_Precip-Accum24h_Sfc_RLatLon0.09_PT078H.grib2 2026-05-04 09:03 2.0M
20260504T06Z_MSC_RDPS_Precip-Accum3h_Sfc_RLatLon0.09_PT078H.grib2 2026-05-04 09:03 1.4M
20260504T06Z_MSC_RDPS_Precip-Accum6h_Sfc_RLatLon0.09_PT078H.grib2 2026-05-04 09:03 1.5M
20260504T06Z_MSC_RDPS_Precip-Accum_Sfc_RLatLon0.09_PT078H.grib2 2026-05-04 09:03 2.1M
20260504T06Z_MSC_RDPS_PrecipRate_Sfc_RLatLon0.09_PT078H.grib2 2026-05-04 09:03 172K
20260504T06Z_MSC_RDPS_PrecipType-Instant_Sfc_RLatLon0.09_PT078H.grib2 2026-05-04 09:03 603K
20260504T06Z_MSC_RDPS_Pressure-Trend3h_Sfc_RLatLon0.09_PT078H.grib2 2026-05-04 09:03 1.2M
20260504T06Z_MSC_RDPS_Pressure_MSL_RLatLon0.09_PT078H.grib2 2026-05-04 09:03 388K
20260504T06Z_MSC_RDPS_Pressure_PVU-1.5_RLatLon0.09_PT078H.grib2 2026-05-04 09:03 2.5M
20260504T06Z_MSC_RDPS_Pressure_PVU-1_RLatLon0.09_PT078H.grib2 2026-05-04 09:03 2.4M
20260504T06Z_MSC_RDPS_Pressure_PVU-2_RLatLon0.09_PT078H.grib2 2026-05-04 09:03 2.4M
20260504T06Z_MSC_RDPS_Pressure_Sfc_RLatLon0.09_PT078H.grib2 2026-05-04 09:03 499K
20260504T06Z_MSC_RDPS_RadiativeTemp_Sfc_RLatLon0.09_PT078H.grib2 2026-05-04 09:03 305K
20260504T06Z_MSC_RDPS_Rain-Accum12h_Sfc_RLatLon0.09_PT078H.grib2 2026-05-04 09:03 1.2M
20260504T06Z_MSC_RDPS_Rain-Accum1h_Sfc_RLatLon0.09_PT078H.grib2 2026-05-04 09:03 578K
20260504T06Z_MSC_RDPS_Rain-Accum24h_Sfc_RLatLon0.09_PT078H.grib2 2026-05-04 09:03 1.5M
20260504T06Z_MSC_RDPS_Rain-Accum3h_Sfc_RLatLon0.09_PT078H.grib2 2026-05-04 09:03 655K
20260504T06Z_MSC_RDPS_Rain-Accum6h_Sfc_RLatLon0.09_PT078H.grib2 2026-05-04 09:03 1.0M
20260504T06Z_MSC_RDPS_Rain-Accum_Sfc_RLatLon0.09_PT078H.grib2 2026-05-04 09:03 1.8M
20260504T06Z_MSC_RDPS_RelativeHumidity_AGL-2m_RLatLon0.09_PT078H.grib2 2026-05-04 09:03 1.0M
20260504T06Z_MSC_RDPS_RelativeHumidity_IsbL-0010_RLatLon0.09_PT078H.grib2 2026-05-04 09:03 719K
20260504T06Z_MSC_RDPS_RelativeHumidity_IsbL-0020_RLatLon0.09_PT078H.grib2 2026-05-04 09:03 646K
20260504T06Z_MSC_RDPS_RelativeHumidity_IsbL-0030_RLatLon0.09_PT078H.grib2 2026-05-04 09:03 603K
20260504T06Z_MSC_RDPS_RelativeHumidity_IsbL-0050_RLatLon0.09_PT078H.grib2 2026-05-04 09:03 355K
20260504T06Z_MSC_RDPS_RelativeHumidity_IsbL-0100_RLatLon0.09_PT078H.grib2 2026-05-04 09:03 275K
20260504T06Z_MSC_RDPS_RelativeHumidity_IsbL-0150_RLatLon0.09_PT078H.grib2 2026-05-04 09:03 402K
20260504T06Z_MSC_RDPS_RelativeHumidity_IsbL-0175_RLatLon0.09_PT078H.grib2 2026-05-04 09:03 464K
20260504T06Z_MSC_RDPS_RelativeHumidity_IsbL-0200_RLatLon0.09_PT078H.grib2 2026-05-04 09:03 543K
20260504T06Z_MSC_RDPS_RelativeHumidity_IsbL-0225_RLatLon0.09_PT078H.grib2 2026-05-04 09:03 609K
20260504T06Z_MSC_RDPS_RelativeHumidity_IsbL-0250_RLatLon0.09_PT078H.grib2 2026-05-04 09:03 673K
20260504T06Z_MSC_RDPS_RelativeHumidity_IsbL-0275_RLatLon0.09_PT078H.grib2 2026-05-04 09:03 700K
20260504T06Z_MSC_RDPS_RelativeHumidity_IsbL-0300_RLatLon0.09_PT078H.grib2 2026-05-04 09:03 748K
20260504T06Z_MSC_RDPS_RelativeHumidity_IsbL-0350_RLatLon0.09_PT078H.grib2 2026-05-04 09:03 776K
20260504T06Z_MSC_RDPS_RelativeHumidity_IsbL-0400_RLatLon0.09_PT078H.grib2 2026-05-04 09:03 789K
20260504T06Z_MSC_RDPS_RelativeHumidity_IsbL-0450_RLatLon0.09_PT078H.grib2 2026-05-04 09:03 792K
20260504T06Z_MSC_RDPS_RelativeHumidity_IsbL-0500_RLatLon0.09_PT078H.grib2 2026-05-04 09:03 796K
20260504T06Z_MSC_RDPS_RelativeHumidity_IsbL-0550_RLatLon0.09_PT078H.grib2 2026-05-04 09:03 809K
20260504T06Z_MSC_RDPS_RelativeHumidity_IsbL-0600_RLatLon0.09_PT078H.grib2 2026-05-04 09:03 828K
20260504T06Z_MSC_RDPS_RelativeHumidity_IsbL-0650_RLatLon0.09_PT078H.grib2 2026-05-04 09:03 832K
20260504T06Z_MSC_RDPS_RelativeHumidity_IsbL-0700_RLatLon0.09_PT078H.grib2 2026-05-04 09:03 852K
20260504T06Z_MSC_RDPS_RelativeHumidity_IsbL-0750_RLatLon0.09_PT078H.grib2 2026-05-04 09:03 900K
20260504T06Z_MSC_RDPS_RelativeHumidity_IsbL-0800_RLatLon0.09_PT078H.grib2 2026-05-04 09:03 1.0M
20260504T06Z_MSC_RDPS_RelativeHumidity_IsbL-0850_RLatLon0.09_PT078H.grib2 2026-05-04 09:03 1.0M
20260504T06Z_MSC_RDPS_RelativeHumidity_IsbL-0875_RLatLon0.09_PT078H.grib2 2026-05-04 09:03 1.1M
20260504T06Z_MSC_RDPS_RelativeHumidity_IsbL-0900_RLatLon0.09_PT078H.grib2 2026-05-04 09:03 1.1M
20260504T06Z_MSC_RDPS_RelativeHumidity_IsbL-0925_RLatLon0.09_PT078H.grib2 2026-05-04 09:03 1.1M
20260504T06Z_MSC_RDPS_RelativeHumidity_IsbL-0950_RLatLon0.09_PT078H.grib2 2026-05-04 09:03 1.1M
20260504T06Z_MSC_RDPS_RelativeHumidity_IsbL-0970_RLatLon0.09_PT078H.grib2 2026-05-04 09:03 1.1M
20260504T06Z_MSC_RDPS_RelativeHumidity_IsbL-0985_RLatLon0.09_PT078H.grib2 2026-05-04 09:03 1.1M
20260504T06Z_MSC_RDPS_RelativeHumidity_IsbL-1000_RLatLon0.09_PT078H.grib2 2026-05-04 09:03 1.0M
20260504T06Z_MSC_RDPS_RelativeHumidity_IsbL-1015_RLatLon0.09_PT078H.grib2 2026-05-04 09:03 1.0M
20260504T06Z_MSC_RDPS_Runoff-Accum_Sfc_RLatLon0.09_PT078H.grib2 2026-05-04 09:03 69K
20260504T06Z_MSC_RDPS_SWEATIndex_Sfc_RLatLon0.09_PT078H.grib2 2026-05-04 09:03 2.4M
20260504T06Z_MSC_RDPS_SeeingIndex_EAtm_RLatLon0.09_PT078H.grib2 2026-05-04 09:03 1.0M
20260504T06Z_MSC_RDPS_SensibleHeatNetFlux_Sfc_RLatLon0.09_PT078H.grib2 2026-05-04 09:03 303K
20260504T06Z_MSC_RDPS_ShowalterIndex_IsbL-0500_RLatLon0.09_PT078H.grib2 2026-05-04 09:03 2.6M
20260504T06Z_MSC_RDPS_SkyTransparencyIndex_EAtm_RLatLon0.09_PT078H.grib2 2026-05-04 09:03 739K
20260504T06Z_MSC_RDPS_Snow-Accum12h_Sfc_RLatLon0.09_PT078H.grib2 2026-05-04 09:03 592K
20260504T06Z_MSC_RDPS_Snow-Accum1h_Sfc_RLatLon0.09_PT078H.grib2 2026-05-04 09:03 525K
20260504T06Z_MSC_RDPS_Snow-Accum24h_Sfc_RLatLon0.09_PT078H.grib2 2026-05-04 09:03 643K
20260504T06Z_MSC_RDPS_Snow-Accum3h_Sfc_RLatLon0.09_PT078H.grib2 2026-05-04 09:03 485K
20260504T06Z_MSC_RDPS_Snow-Accum6h_Sfc_RLatLon0.09_PT078H.grib2 2026-05-04 09:03 582K
20260504T06Z_MSC_RDPS_Snow-Accum_Sfc_RLatLon0.09_PT078H.grib2 2026-05-04 09:03 805K
20260504T06Z_MSC_RDPS_SnowDensity_Sfc_RLatLon0.09_PT078H.grib2 2026-05-04 09:03 177K
20260504T06Z_MSC_RDPS_SnowDepth_Sfc_RLatLon0.09_PT078H.grib2 2026-05-04 09:03 649K
20260504T06Z_MSC_RDPS_SoilTemp_DBS-0to10cm_RLatLon0.09_PT078H.grib2 2026-05-04 09:03 243K
20260504T06Z_MSC_RDPS_SoilTemp_Sfc_RLatLon0.09_PT078H.grib2 2026-05-04 09:03 276K
20260504T06Z_MSC_RDPS_SoilVolumetricIceContent_Sfc_RLatLon0.09_PT078H.grib2 2026-05-04 09:03 151K
20260504T06Z_MSC_RDPS_SoilVolumetricWaterContent_DBS-0to10cm_RLatLon0.09_PT078H.grib2 2026-05-04 09:03 284K
20260504T06Z_MSC_RDPS_SoilVolumetricWaterContent_DBS-0to1cm_RLatLon0.09_PT078H.grib2 2026-05-04 09:03 346K
20260504T06Z_MSC_RDPS_SpecificHumidity_AGL-120m_RLatLon0.09_PT078H.grib2 2026-05-04 09:03 504K
20260504T06Z_MSC_RDPS_SpecificHumidity_AGL-2m_RLatLon0.09_PT078H.grib2 2026-05-04 09:03 670K
20260504T06Z_MSC_RDPS_SpecificHumidity_AGL-40m_RLatLon0.09_PT078H.grib2 2026-05-04 09:03 509K
20260504T06Z_MSC_RDPS_SpecificHumidity_AGL-80m_RLatLon0.09_PT078H.grib2 2026-05-04 09:03 505K
20260504T06Z_MSC_RDPS_SpecificHumidity_IsbL-0001_RLatLon0.09_PT078H.grib2 2026-05-04 09:03 373K
20260504T06Z_MSC_RDPS_SpecificHumidity_IsbL-0005_RLatLon0.09_PT078H.grib2 2026-05-04 09:03 364K
20260504T06Z_MSC_RDPS_SpecificHumidity_IsbL-0010_RLatLon0.09_PT078H.grib2 2026-05-04 09:03 395K
20260504T06Z_MSC_RDPS_SpecificHumidity_IsbL-0020_RLatLon0.09_PT078H.grib2 2026-05-04 09:03 373K
20260504T06Z_MSC_RDPS_SpecificHumidity_IsbL-0030_RLatLon0.09_PT078H.grib2 2026-05-04 09:03 357K
20260504T06Z_MSC_RDPS_SpecificHumidity_IsbL-0050_RLatLon0.09_PT078H.grib2 2026-05-04 09:03 467K
20260504T06Z_MSC_RDPS_SpecificHumidity_IsbL-0100_RLatLon0.09_PT078H.grib2 2026-05-04 09:03 413K
20260504T06Z_MSC_RDPS_SpecificHumidity_IsbL-0150_RLatLon0.09_PT078H.grib2 2026-05-04 09:03 471K
20260504T06Z_MSC_RDPS_SpecificHumidity_IsbL-0175_RLatLon0.09_PT078H.grib2 2026-05-04 09:03 433K
20260504T06Z_MSC_RDPS_SpecificHumidity_IsbL-0200_RLatLon0.09_PT078H.grib2 2026-05-04 09:03 466K
20260504T06Z_MSC_RDPS_SpecificHumidity_IsbL-0225_RLatLon0.09_PT078H.grib2 2026-05-04 09:03 447K
20260504T06Z_MSC_RDPS_SpecificHumidity_IsbL-0250_RLatLon0.09_PT078H.grib2 2026-05-04 09:03 550K
20260504T06Z_MSC_RDPS_SpecificHumidity_IsbL-0275_RLatLon0.09_PT078H.grib2 2026-05-04 09:03 467K
20260504T06Z_MSC_RDPS_SpecificHumidity_IsbL-0300_RLatLon0.09_PT078H.grib2 2026-05-04 09:03 541K
20260504T06Z_MSC_RDPS_SpecificHumidity_IsbL-0350_RLatLon0.09_PT078H.grib2 2026-05-04 09:03 538K
20260504T06Z_MSC_RDPS_SpecificHumidity_IsbL-0400_RLatLon0.09_PT078H.grib2 2026-05-04 09:03 518K
20260504T06Z_MSC_RDPS_SpecificHumidity_IsbL-0450_RLatLon0.09_PT078H.grib2 2026-05-04 09:03 608K
20260504T06Z_MSC_RDPS_SpecificHumidity_IsbL-0500_RLatLon0.09_PT078H.grib2 2026-05-04 09:03 502K
20260504T06Z_MSC_RDPS_SpecificHumidity_IsbL-0550_RLatLon0.09_PT078H.grib2 2026-05-04 09:03 556K
20260504T06Z_MSC_RDPS_SpecificHumidity_IsbL-0600_RLatLon0.09_PT078H.grib2 2026-05-04 09:03 624K
20260504T06Z_MSC_RDPS_SpecificHumidity_IsbL-0650_RLatLon0.09_PT078H.grib2 2026-05-04 09:03 536K
20260504T06Z_MSC_RDPS_SpecificHumidity_IsbL-0700_RLatLon0.09_PT078H.grib2 2026-05-04 09:03 575K
20260504T06Z_MSC_RDPS_SpecificHumidity_IsbL-0750_RLatLon0.09_PT078H.grib2 2026-05-04 09:03 632K
20260504T06Z_MSC_RDPS_SpecificHumidity_IsbL-0800_RLatLon0.09_PT078H.grib2 2026-05-04 09:03 719K
20260504T06Z_MSC_RDPS_SpecificHumidity_IsbL-0850_RLatLon0.09_PT078H.grib2 2026-05-04 09:03 815K
20260504T06Z_MSC_RDPS_SpecificHumidity_IsbL-0875_RLatLon0.09_PT078H.grib2 2026-05-04 09:03 842K
20260504T06Z_MSC_RDPS_SpecificHumidity_IsbL-0900_RLatLon0.09_PT078H.grib2 2026-05-04 09:03 854K
20260504T06Z_MSC_RDPS_SpecificHumidity_IsbL-0925_RLatLon0.09_PT078H.grib2 2026-05-04 09:03 856K
20260504T06Z_MSC_RDPS_SpecificHumidity_IsbL-0950_RLatLon0.09_PT078H.grib2 2026-05-04 09:03 853K
20260504T06Z_MSC_RDPS_SpecificHumidity_IsbL-0970_RLatLon0.09_PT078H.grib2 2026-05-04 09:03 704K
20260504T06Z_MSC_RDPS_SpecificHumidity_IsbL-0985_RLatLon0.09_PT078H.grib2 2026-05-04 09:03 698K
20260504T06Z_MSC_RDPS_SpecificHumidity_IsbL-1000_RLatLon0.09_PT078H.grib2 2026-05-04 09:03 694K
20260504T06Z_MSC_RDPS_SpecificHumidity_IsbL-1015_RLatLon0.09_PT078H.grib2 2026-05-04 09:03 682K
20260504T06Z_MSC_RDPS_SpecificHumidity_Sfc_RLatLon0.09_PT078H.grib2 2026-05-04 09:03 303K
20260504T06Z_MSC_RDPS_StormRelativeHelicity_EtaL-10000_RLatLon0.09_PT078H.grib2 2026-05-04 09:03 1.1M
20260504T06Z_MSC_RDPS_StormSeverityIndex_EtaL-10000_RLatLon0.09_PT078H.grib2 2026-05-04 09:03 1.1M
20260504T06Z_MSC_RDPS_Thickness_IsbL-0850to0700_RLatLon0.09_PT078H.grib2 2026-05-04 09:03 245K
20260504T06Z_MSC_RDPS_Thickness_IsbL-1000to0500_RLatLon0.09_PT078H.grib2 2026-05-04 09:03 191K
20260504T06Z_MSC_RDPS_Thickness_IsbL-1000to0850_RLatLon0.09_PT078H.grib2 2026-05-04 09:03 260K
20260504T06Z_MSC_RDPS_TotalCloudCover_Sfc_RLatLon0.09_PT078H.grib2 2026-05-04 09:03 685K
20260504T06Z_MSC_RDPS_TotalTotalsIndex_Sfc_RLatLon0.09_PT078H.grib2 2026-05-04 09:03 2.4M
20260504T06Z_MSC_RDPS_UVIndex-ClearSky_Sfc_RLatLon0.09_PT078H.grib2 2026-05-04 09:03 149K
20260504T06Z_MSC_RDPS_UVIndex_Sfc_RLatLon0.09_PT078H.grib2 2026-05-04 09:03 366K
20260504T06Z_MSC_RDPS_UpwardLongwaveRadiationFlux_NTAtm_RLatLon0.09_PT078H.grib2 2026-05-04 09:03 491K
20260504T06Z_MSC_RDPS_UpwardShortwaveRadiationFlux_NTAtm_RLatLon0.09_PT078H.grib2 2026-05-04 09:03 326K
20260504T06Z_MSC_RDPS_VerticalVelocity_IsbL-0250_RLatLon0.09_PT078H.grib2 2026-05-04 09:03 574K
20260504T06Z_MSC_RDPS_VerticalVelocity_IsbL-0500_RLatLon0.09_PT078H.grib2 2026-05-04 09:03 574K
20260504T06Z_MSC_RDPS_VerticalVelocity_IsbL-0700_RLatLon0.09_PT078H.grib2 2026-05-04 09:03 583K
20260504T06Z_MSC_RDPS_VerticalVelocity_IsbL-0850_RLatLon0.09_PT078H.grib2 2026-05-04 09:03 833K
20260504T06Z_MSC_RDPS_VerticalWindShear_EtaL-6500_RLatLon0.09_PT078H.grib2 2026-05-04 09:03 1.2M
20260504T06Z_MSC_RDPS_WindChill_Sfc_RLatLon0.09_PT078H.grib2 2026-05-04 09:03 1.2M
20260504T06Z_MSC_RDPS_WindDir_AGL-10m_RLatLon0.09_PT078H.grib2 2026-05-04 09:03 1.0M
20260504T06Z_MSC_RDPS_WindDir_AGL-120m_RLatLon0.09_PT078H.grib2 2026-05-04 09:03 626K
20260504T06Z_MSC_RDPS_WindDir_AGL-40m_RLatLon0.09_PT078H.grib2 2026-05-04 09:03 657K
20260504T06Z_MSC_RDPS_WindDir_AGL-80m_RLatLon0.09_PT078H.grib2 2026-05-04 09:03 638K
20260504T06Z_MSC_RDPS_WindDir_IsbL-0001_RLatLon0.09_PT078H.grib2 2026-05-04 09:03 296K
20260504T06Z_MSC_RDPS_WindDir_IsbL-0005_RLatLon0.09_PT078H.grib2 2026-05-04 09:03 381K
20260504T06Z_MSC_RDPS_WindDir_IsbL-0010_RLatLon0.09_PT078H.grib2 2026-05-04 09:03 380K
20260504T06Z_MSC_RDPS_WindDir_IsbL-0020_RLatLon0.09_PT078H.grib2 2026-05-04 09:03 409K
20260504T06Z_MSC_RDPS_WindDir_IsbL-0030_RLatLon0.09_PT078H.grib2 2026-05-04 09:03 406K
20260504T06Z_MSC_RDPS_WindDir_IsbL-0050_RLatLon0.09_PT078H.grib2 2026-05-04 09:03 434K
20260504T06Z_MSC_RDPS_WindDir_IsbL-0100_RLatLon0.09_PT078H.grib2 2026-05-04 09:03 417K
20260504T06Z_MSC_RDPS_WindDir_IsbL-0150_RLatLon0.09_PT078H.grib2 2026-05-04 09:03 418K
20260504T06Z_MSC_RDPS_WindDir_IsbL-0175_RLatLon0.09_PT078H.grib2 2026-05-04 09:03 439K
20260504T06Z_MSC_RDPS_WindDir_IsbL-0200_RLatLon0.09_PT078H.grib2 2026-05-04 09:03 456K
20260504T06Z_MSC_RDPS_WindDir_IsbL-0225_RLatLon0.09_PT078H.grib2 2026-05-04 09:03 459K
20260504T06Z_MSC_RDPS_WindDir_IsbL-0250_RLatLon0.09_PT078H.grib2 2026-05-04 09:03 455K
20260504T06Z_MSC_RDPS_WindDir_IsbL-0275_RLatLon0.09_PT078H.grib2 2026-05-04 09:03 475K
20260504T06Z_MSC_RDPS_WindDir_IsbL-0300_RLatLon0.09_PT078H.grib2 2026-05-04 09:03 472K
20260504T06Z_MSC_RDPS_WindDir_IsbL-0350_RLatLon0.09_PT078H.grib2 2026-05-04 09:03 497K
20260504T06Z_MSC_RDPS_WindDir_IsbL-0400_RLatLon0.09_PT078H.grib2 2026-05-04 09:03 514K
20260504T06Z_MSC_RDPS_WindDir_IsbL-0450_RLatLon0.09_PT078H.grib2 2026-05-04 09:03 529K
20260504T06Z_MSC_RDPS_WindDir_IsbL-0500_RLatLon0.09_PT078H.grib2 2026-05-04 09:03 544K
20260504T06Z_MSC_RDPS_WindDir_IsbL-0550_RLatLon0.09_PT078H.grib2 2026-05-04 09:03 563K
20260504T06Z_MSC_RDPS_WindDir_IsbL-0600_RLatLon0.09_PT078H.grib2 2026-05-04 09:03 588K
20260504T06Z_MSC_RDPS_WindDir_IsbL-0650_RLatLon0.09_PT078H.grib2 2026-05-04 09:03 632K
20260504T06Z_MSC_RDPS_WindDir_IsbL-0700_RLatLon0.09_PT078H.grib2 2026-05-04 09:03 670K
20260504T06Z_MSC_RDPS_WindDir_IsbL-0750_RLatLon0.09_PT078H.grib2 2026-05-04 09:03 718K
20260504T06Z_MSC_RDPS_WindDir_IsbL-0800_RLatLon0.09_PT078H.grib2 2026-05-04 09:03 792K
20260504T06Z_MSC_RDPS_WindDir_IsbL-0850_RLatLon0.09_PT078H.grib2 2026-05-04 09:03 873K
20260504T06Z_MSC_RDPS_WindDir_IsbL-0875_RLatLon0.09_PT078H.grib2 2026-05-04 09:03 904K
20260504T06Z_MSC_RDPS_WindDir_IsbL-0900_RLatLon0.09_PT078H.grib2 2026-05-04 09:03 923K
20260504T06Z_MSC_RDPS_WindDir_IsbL-0925_RLatLon0.09_PT078H.grib2 2026-05-04 09:03 934K
20260504T06Z_MSC_RDPS_WindDir_IsbL-0950_RLatLon0.09_PT078H.grib2 2026-05-04 09:03 939K
20260504T06Z_MSC_RDPS_WindDir_IsbL-0970_RLatLon0.09_PT078H.grib2 2026-05-04 09:03 943K
20260504T06Z_MSC_RDPS_WindDir_IsbL-0985_RLatLon0.09_PT078H.grib2 2026-05-04 09:03 953K
20260504T06Z_MSC_RDPS_WindDir_IsbL-1000_RLatLon0.09_PT078H.grib2 2026-05-04 09:03 968K
20260504T06Z_MSC_RDPS_WindDir_IsbL-1015_RLatLon0.09_PT078H.grib2 2026-05-04 09:03 1.0M
20260504T06Z_MSC_RDPS_WindGust-Max_AGL-10m_RLatLon0.09_PT078H.grib2 2026-05-04 09:03 1.0M
20260504T06Z_MSC_RDPS_WindGust-Min_AGL-10m_RLatLon0.09_PT078H.grib2 2026-05-04 09:03 972K
20260504T06Z_MSC_RDPS_WindGust_AGL-10m_RLatLon0.09_PT078H.grib2 2026-05-04 09:03 1.0M
20260504T06Z_MSC_RDPS_WindSpeed_AGL-10m_RLatLon0.09_PT078H.grib2 2026-05-04 09:03 846K
20260504T06Z_MSC_RDPS_WindSpeed_AGL-120m_RLatLon0.09_PT078H.grib2 2026-05-04 09:03 677K
20260504T06Z_MSC_RDPS_WindSpeed_AGL-40m_RLatLon0.09_PT078H.grib2 2026-05-04 09:03 677K
20260504T06Z_MSC_RDPS_WindSpeed_AGL-80m_RLatLon0.09_PT078H.grib2 2026-05-04 09:03 677K
20260504T06Z_MSC_RDPS_WindSpeed_IsbL-0001_RLatLon0.09_PT078H.grib2 2026-05-04 09:03 254K
20260504T06Z_MSC_RDPS_WindSpeed_IsbL-0005_RLatLon0.09_PT078H.grib2 2026-05-04 09:03 294K
20260504T06Z_MSC_RDPS_WindSpeed_IsbL-0010_RLatLon0.09_PT078H.grib2 2026-05-04 09:03 399K
20260504T06Z_MSC_RDPS_WindSpeed_IsbL-0020_RLatLon0.09_PT078H.grib2 2026-05-04 09:03 424K
20260504T06Z_MSC_RDPS_WindSpeed_IsbL-0030_RLatLon0.09_PT078H.grib2 2026-05-04 09:03 322K
20260504T06Z_MSC_RDPS_WindSpeed_IsbL-0050_RLatLon0.09_PT078H.grib2 2026-05-04 09:03 347K
20260504T06Z_MSC_RDPS_WindSpeed_IsbL-0100_RLatLon0.09_PT078H.grib2 2026-05-04 09:03 433K
20260504T06Z_MSC_RDPS_WindSpeed_IsbL-0150_RLatLon0.09_PT078H.grib2 2026-05-04 09:03 396K
20260504T06Z_MSC_RDPS_WindSpeed_IsbL-0175_RLatLon0.09_PT078H.grib2 2026-05-04 09:03 419K
20260504T06Z_MSC_RDPS_WindSpeed_IsbL-0200_RLatLon0.09_PT078H.grib2 2026-05-04 09:03 436K
20260504T06Z_MSC_RDPS_WindSpeed_IsbL-0225_RLatLon0.09_PT078H.grib2 2026-05-04 09:03 439K
20260504T06Z_MSC_RDPS_WindSpeed_IsbL-0250_RLatLon0.09_PT078H.grib2 2026-05-04 09:03 439K
20260504T06Z_MSC_RDPS_WindSpeed_IsbL-0275_RLatLon0.09_PT078H.grib2 2026-05-04 09:03 458K
20260504T06Z_MSC_RDPS_WindSpeed_IsbL-0300_RLatLon0.09_PT078H.grib2 2026-05-04 09:03 458K
20260504T06Z_MSC_RDPS_WindSpeed_IsbL-0350_RLatLon0.09_PT078H.grib2 2026-05-04 09:03 473K
20260504T06Z_MSC_RDPS_WindSpeed_IsbL-0400_RLatLon0.09_PT078H.grib2 2026-05-04 09:03 460K
20260504T06Z_MSC_RDPS_WindSpeed_IsbL-0450_RLatLon0.09_PT078H.grib2 2026-05-04 09:03 456K
20260504T06Z_MSC_RDPS_WindSpeed_IsbL-0500_RLatLon0.09_PT078H.grib2 2026-05-04 09:03 573K
20260504T06Z_MSC_RDPS_WindSpeed_IsbL-0550_RLatLon0.09_PT078H.grib2 2026-05-04 09:03 573K
20260504T06Z_MSC_RDPS_WindSpeed_IsbL-0600_RLatLon0.09_PT078H.grib2 2026-05-04 09:03 623K
20260504T06Z_MSC_RDPS_WindSpeed_IsbL-0650_RLatLon0.09_PT078H.grib2 2026-05-04 09:03 601K
20260504T06Z_MSC_RDPS_WindSpeed_IsbL-0700_RLatLon0.09_PT078H.grib2 2026-05-04 09:03 668K
20260504T06Z_MSC_RDPS_WindSpeed_IsbL-0750_RLatLon0.09_PT078H.grib2 2026-05-04 09:03 700K
20260504T06Z_MSC_RDPS_WindSpeed_IsbL-0800_RLatLon0.09_PT078H.grib2 2026-05-04 09:03 754K
20260504T06Z_MSC_RDPS_WindSpeed_IsbL-0850_RLatLon0.09_PT078H.grib2 2026-05-04 09:03 821K
20260504T06Z_MSC_RDPS_WindSpeed_IsbL-0875_RLatLon0.09_PT078H.grib2 2026-05-04 09:03 846K
20260504T06Z_MSC_RDPS_WindSpeed_IsbL-0900_RLatLon0.09_PT078H.grib2 2026-05-04 09:03 856K
20260504T06Z_MSC_RDPS_WindSpeed_IsbL-0925_RLatLon0.09_PT078H.grib2 2026-05-04 09:03 867K
20260504T06Z_MSC_RDPS_WindSpeed_IsbL-0950_RLatLon0.09_PT078H.grib2 2026-05-04 09:03 869K
20260504T06Z_MSC_RDPS_WindSpeed_IsbL-0970_RLatLon0.09_PT078H.grib2 2026-05-04 09:03 866K
20260504T06Z_MSC_RDPS_WindSpeed_IsbL-0985_RLatLon0.09_PT078H.grib2 2026-05-04 09:03 860K
20260504T06Z_MSC_RDPS_WindSpeed_IsbL-1000_RLatLon0.09_PT078H.grib2 2026-05-04 09:03 855K
20260504T06Z_MSC_RDPS_WindSpeed_IsbL-1015_RLatLon0.09_PT078H.grib2 2026-05-04 09:03 846K
20260504T06Z_MSC_RDPS_WindU_AGL-10m_RLatLon0.09_PT078H.grib2 2026-05-04 09:03 436K
20260504T06Z_MSC_RDPS_WindU_AGL-120m_RLatLon0.09_PT078H.grib2 2026-05-04 09:03 542K
20260504T06Z_MSC_RDPS_WindU_AGL-40m_RLatLon0.09_PT078H.grib2 2026-05-04 09:03 544K
20260504T06Z_MSC_RDPS_WindU_AGL-80m_RLatLon0.09_PT078H.grib2 2026-05-04 09:03 543K
20260504T06Z_MSC_RDPS_WindU_IsbL-0001_RLatLon0.09_PT078H.grib2 2026-05-04 09:03 296K
20260504T06Z_MSC_RDPS_WindU_IsbL-0005_RLatLon0.09_PT078H.grib2 2026-05-04 09:03 285K
20260504T06Z_MSC_RDPS_WindU_IsbL-0010_RLatLon0.09_PT078H.grib2 2026-05-04 09:03 299K
20260504T06Z_MSC_RDPS_WindU_IsbL-0020_RLatLon0.09_PT078H.grib2 2026-05-04 09:03 320K
20260504T06Z_MSC_RDPS_WindU_IsbL-0030_RLatLon0.09_PT078H.grib2 2026-05-04 09:03 354K
20260504T06Z_MSC_RDPS_WindU_IsbL-0050_RLatLon0.09_PT078H.grib2 2026-05-04 09:03 379K
20260504T06Z_MSC_RDPS_WindU_IsbL-0100_RLatLon0.09_PT078H.grib2 2026-05-04 09:03 332K
20260504T06Z_MSC_RDPS_WindU_IsbL-0150_RLatLon0.09_PT078H.grib2 2026-05-04 09:03 390K
20260504T06Z_MSC_RDPS_WindU_IsbL-0175_RLatLon0.09_PT078H.grib2 2026-05-04 09:03 413K
20260504T06Z_MSC_RDPS_WindU_IsbL-0200_RLatLon0.09_PT078H.grib2 2026-05-04 09:03 333K
20260504T06Z_MSC_RDPS_WindU_IsbL-0225_RLatLon0.09_PT078H.grib2 2026-05-04 09:03 335K
20260504T06Z_MSC_RDPS_WindU_IsbL-0250_RLatLon0.09_PT078H.grib2 2026-05-04 09:03 334K
20260504T06Z_MSC_RDPS_WindU_IsbL-0275_RLatLon0.09_PT078H.grib2 2026-05-04 09:03 348K
20260504T06Z_MSC_RDPS_WindU_IsbL-0300_RLatLon0.09_PT078H.grib2 2026-05-04 09:03 346K
20260504T06Z_MSC_RDPS_WindU_IsbL-0350_RLatLon0.09_PT078H.grib2 2026-05-04 09:03 358K
20260504T06Z_MSC_RDPS_WindU_IsbL-0400_RLatLon0.09_PT078H.grib2 2026-05-04 09:03 362K
20260504T06Z_MSC_RDPS_WindU_IsbL-0450_RLatLon0.09_PT078H.grib2 2026-05-04 09:03 462K
20260504T06Z_MSC_RDPS_WindU_IsbL-0500_RLatLon0.09_PT078H.grib2 2026-05-04 09:03 461K
20260504T06Z_MSC_RDPS_WindU_IsbL-0550_RLatLon0.09_PT078H.grib2 2026-05-04 09:03 462K
20260504T06Z_MSC_RDPS_WindU_IsbL-0600_RLatLon0.09_PT078H.grib2 2026-05-04 09:03 470K
20260504T06Z_MSC_RDPS_WindU_IsbL-0650_RLatLon0.09_PT078H.grib2 2026-05-04 09:03 487K
20260504T06Z_MSC_RDPS_WindU_IsbL-0700_RLatLon0.09_PT078H.grib2 2026-05-04 09:03 508K
20260504T06Z_MSC_RDPS_WindU_IsbL-0750_RLatLon0.09_PT078H.grib2 2026-05-04 09:03 522K
20260504T06Z_MSC_RDPS_WindU_IsbL-0800_RLatLon0.09_PT078H.grib2 2026-05-04 09:03 581K
20260504T06Z_MSC_RDPS_WindU_IsbL-0850_RLatLon0.09_PT078H.grib2 2026-05-04 09:03 637K
20260504T06Z_MSC_RDPS_WindU_IsbL-0875_RLatLon0.09_PT078H.grib2 2026-05-04 09:03 649K
20260504T06Z_MSC_RDPS_WindU_IsbL-0900_RLatLon0.09_PT078H.grib2 2026-05-04 09:03 660K
20260504T06Z_MSC_RDPS_WindU_IsbL-0925_RLatLon0.09_PT078H.grib2 2026-05-04 09:03 667K
20260504T06Z_MSC_RDPS_WindU_IsbL-0950_RLatLon0.09_PT078H.grib2 2026-05-04 09:03 806K
20260504T06Z_MSC_RDPS_WindU_IsbL-0970_RLatLon0.09_PT078H.grib2 2026-05-04 09:03 802K
20260504T06Z_MSC_RDPS_WindU_IsbL-0985_RLatLon0.09_PT078H.grib2 2026-05-04 09:03 798K
20260504T06Z_MSC_RDPS_WindU_IsbL-1000_RLatLon0.09_PT078H.grib2 2026-05-04 09:03 794K
20260504T06Z_MSC_RDPS_WindU_IsbL-1015_RLatLon0.09_PT078H.grib2 2026-05-04 09:03 834K
20260504T06Z_MSC_RDPS_WindV_AGL-10m_RLatLon0.09_PT078H.grib2 2026-05-04 09:03 432K
20260504T06Z_MSC_RDPS_WindV_AGL-120m_RLatLon0.09_PT078H.grib2 2026-05-04 09:03 539K
20260504T06Z_MSC_RDPS_WindV_AGL-40m_RLatLon0.09_PT078H.grib2 2026-05-04 09:03 540K
20260504T06Z_MSC_RDPS_WindV_AGL-80m_RLatLon0.09_PT078H.grib2 2026-05-04 09:03 540K
20260504T06Z_MSC_RDPS_WindV_IsbL-0001_RLatLon0.09_PT078H.grib2 2026-05-04 09:03 248K
20260504T06Z_MSC_RDPS_WindV_IsbL-0005_RLatLon0.09_PT078H.grib2 2026-05-04 09:03 287K
20260504T06Z_MSC_RDPS_WindV_IsbL-0010_RLatLon0.09_PT078H.grib2 2026-05-04 09:03 300K
20260504T06Z_MSC_RDPS_WindV_IsbL-0020_RLatLon0.09_PT078H.grib2 2026-05-04 09:03 322K
20260504T06Z_MSC_RDPS_WindV_IsbL-0030_RLatLon0.09_PT078H.grib2 2026-05-04 09:03 317K
20260504T06Z_MSC_RDPS_WindV_IsbL-0050_RLatLon0.09_PT078H.grib2 2026-05-04 09:03 343K
20260504T06Z_MSC_RDPS_WindV_IsbL-0100_RLatLon0.09_PT078H.grib2 2026-05-04 09:03 422K
20260504T06Z_MSC_RDPS_WindV_IsbL-0150_RLatLon0.09_PT078H.grib2 2026-05-04 09:03 389K
20260504T06Z_MSC_RDPS_WindV_IsbL-0175_RLatLon0.09_PT078H.grib2 2026-05-04 09:03 411K
20260504T06Z_MSC_RDPS_WindV_IsbL-0200_RLatLon0.09_PT078H.grib2 2026-05-04 09:03 429K
20260504T06Z_MSC_RDPS_WindV_IsbL-0225_RLatLon0.09_PT078H.grib2 2026-05-04 09:03 430K
20260504T06Z_MSC_RDPS_WindV_IsbL-0250_RLatLon0.09_PT078H.grib2 2026-05-04 09:03 333K
20260504T06Z_MSC_RDPS_WindV_IsbL-0275_RLatLon0.09_PT078H.grib2 2026-05-04 09:03 347K
20260504T06Z_MSC_RDPS_WindV_IsbL-0300_RLatLon0.09_PT078H.grib2 2026-05-04 09:03 344K
20260504T06Z_MSC_RDPS_WindV_IsbL-0350_RLatLon0.09_PT078H.grib2 2026-05-04 09:03 355K
20260504T06Z_MSC_RDPS_WindV_IsbL-0400_RLatLon0.09_PT078H.grib2 2026-05-04 09:03 460K
20260504T06Z_MSC_RDPS_WindV_IsbL-0450_RLatLon0.09_PT078H.grib2 2026-05-04 09:03 457K
20260504T06Z_MSC_RDPS_WindV_IsbL-0500_RLatLon0.09_PT078H.grib2 2026-05-04 09:03 458K
20260504T06Z_MSC_RDPS_WindV_IsbL-0550_RLatLon0.09_PT078H.grib2 2026-05-04 09:03 458K
20260504T06Z_MSC_RDPS_WindV_IsbL-0600_RLatLon0.09_PT078H.grib2 2026-05-04 09:03 465K
20260504T06Z_MSC_RDPS_WindV_IsbL-0650_RLatLon0.09_PT078H.grib2 2026-05-04 09:03 482K
20260504T06Z_MSC_RDPS_WindV_IsbL-0700_RLatLon0.09_PT078H.grib2 2026-05-04 09:03 502K
20260504T06Z_MSC_RDPS_WindV_IsbL-0750_RLatLon0.09_PT078H.grib2 2026-05-04 09:03 515K
20260504T06Z_MSC_RDPS_WindV_IsbL-0800_RLatLon0.09_PT078H.grib2 2026-05-04 09:03 564K
20260504T06Z_MSC_RDPS_WindV_IsbL-0850_RLatLon0.09_PT078H.grib2 2026-05-04 09:03 624K
20260504T06Z_MSC_RDPS_WindV_IsbL-0875_RLatLon0.09_PT078H.grib2 2026-05-04 09:03 646K
20260504T06Z_MSC_RDPS_WindV_IsbL-0900_RLatLon0.09_PT078H.grib2 2026-05-04 09:03 657K
20260504T06Z_MSC_RDPS_WindV_IsbL-0925_RLatLon0.09_PT078H.grib2 2026-05-04 09:03 665K
20260504T06Z_MSC_RDPS_WindV_IsbL-0950_RLatLon0.09_PT078H.grib2 2026-05-04 09:03 663K
20260504T06Z_MSC_RDPS_WindV_IsbL-0970_RLatLon0.09_PT078H.grib2 2026-05-04 09:03 801K
20260504T06Z_MSC_RDPS_WindV_IsbL-0985_RLatLon0.09_PT078H.grib2 2026-05-04 09:03 795K
20260504T06Z_MSC_RDPS_WindV_IsbL-1000_RLatLon0.09_PT078H.grib2 2026-05-04 09:03 836K
20260504T06Z_MSC_RDPS_WindV_IsbL-1015_RLatLon0.09_PT078H.grib2 2026-05-04 09:03 828K